TimeCST,TemperatureF,Dew PointF,Humidity,Sea Level PressureIn,VisibilityMPH,Wind Direction,Wind SpeedMPH,Gust SpeedMPH,PrecipitationIn,Events,Conditions,WindDirDegrees,DateUTC
12:53 AM,33.1,19.0,56,30.01,10.0,WNW,13.8,-,N/A,,Mostly Cloudy,290,2013-01-31 06:53:00
1:53 AM,32.0,19.0,59,30.01,10.0,WNW,10.4,-,N/A,,Mostly Cloudy,290,2013-01-31 07:53:00
2:53 AM,32.0,19.0,59,30.01,10.0,West,8.1,-,N/A,,Mostly Cloudy,280,2013-01-31 08:53:00
3:53 AM,30.9,19.0,61,30.02,10.0,WNW,6.9,-,N/A,,Scattered Clouds,290,2013-01-31 09:53:00
4:53 AM,30.0,19.9,66,30.04,10.0,WSW,3.5,-,N/A,,Clear,240,2013-01-31 10:53:00
5:53 AM,28.9,19.0,67,30.06,10.0,WSW,5.8,-,N/A,,Clear,250,2013-01-31 11:53:00
6:53 AM,28.9,19.9,69,30.09,10.0,WSW,6.9,-,N/A,,Partly Cloudy,240,2013-01-31 12:53:00
7:53 AM,30.0,21.0,69,30.10,10.0,SW,8.1,-,N/A,,Overcast,230,2013-01-31 13:53:00
8:53 AM,32.0,21.9,66,30.12,10.0,SW,8.1,-,N/A,,Scattered Clouds,220,2013-01-31 14:53:00
9:53 AM,35.1,23.0,61,30.14,10.0,SW,12.7,-,N/A,,Clear,220,2013-01-31 15:53:00
10:53 AM,37.9,21.9,53,30.14,10.0,West,8.1,-,N/A,,Clear,260,2013-01-31 16:53:00
11:53 AM,39.0,26.1,60,30.10,10.0,SSW,10.4,-,N/A,,Clear,210,2013-01-31 17:53:00
12:53 PM,41.0,27.0,57,30.07,10.0,SSW,10.4,-,N/A,,Clear,210,2013-01-31 18:53:00
2:53 PM,-9999,-9999,N/A,30.04,-9999.0,North,-9999.0,-,N/A,,Unknown,0,2013-01-31 20:53:00
3:53 PM,48.0,25.0,41,30.07,10.0,WNW,16.1,25.3,N/A,,Overcast,290,2013-01-31 21:53:00
4:53 PM,39.9,32.0,73,30.11,10.0,NW,17.3,25.3,N/A,,Overcast,320,2013-01-31 22:53:00
5:24 PM,35.6,30.2,81,30.12,2.5,NW,23.0,32.2,0.00,Snow,Light Snow,310,2013-01-31 23:24:00
5:27 PM,35.6,30.2,81,30.12,3.0,NW,18.4,32.2,0.00,Snow,Light Snow,310,2013-01-31 23:27:00
5:53 PM,36.0,28.9,76,30.17,7.0,WNW,20.7,35.7,0.00,Snow,Light Snow,300,2013-01-31 23:53:00
6:53 PM,35.1,26.1,70,30.21,10.0,WNW,16.1,28.8,0.00,,Overcast,300,2013-02-01 00:53:00
7:53 PM,32.0,18.0,56,30.24,10.0,NW,17.3,25.3,N/A,,Partly Cloudy,310,2013-02-01 01:53:00
8:53 PM,30.0,12.0,47,30.30,10.0,NNW,13.8,-,N/A,,Clear,330,2013-02-01 02:53:00
9:53 PM,27.0,8.1,45,30.33,10.0,NW,16.1,23.0,N/A,,Clear,320,2013-02-01 03:53:00
10:53 PM,26.1,8.1,47,30.38,10.0,NW,18.4,27.6,N/A,,Clear,310,2013-02-01 04:53:00
11:53 PM,23.0,7.0,50,30.40,10.0,NNW,18.4,25.3,N/A,,Clear,330,2013-02-01 05:53:00